Flag for Yemen Weather past 2 weeks in Ta'izz, Yemen

Now
79 °F

Scattered clouds.


Feels Like: 80 °F
Forecast: 64 / 80 °F
Wind: 7 mph from Southeast

Location: Taiz

Current Time: Oct 2, 2014 at 11:26:33 AM

Latest Report: Oct 2, 2014 at 11:00 AM


Visibility: N/A

Pressure: 30.12 "Hg

Humidity: 51%

Dew point: 59 °F

Location of Ta'izzLocation

Historic Weather in Ta'izz — Graph

°F

Ta'izz temperature yesterday

Maximum temperature yesterday: 82 °F (at 11:00 AM)
Minimum temperature yesterday: 61 °F (at 6:00 AM)
Average temperature yesterday: 71 °F

Past Weeks' High & Low Weather Summary

 TemperatureHumidityPressure
High91 °F (Sep 19, 2:00 PM)100% (Sep 19, 10:00 PM)30.15 "Hg (Sep 19, 10:00 PM)
Low59 °F (Sep 21, 6:00 AM)14% (Sep 19, 12:00 PM)29.68 "Hg (Sep 18, 6:00 AM)
Average75 °F60%30.04 "Hg
* Reported Sep 17 10:00 AM — Oct 2 10:00 AM, Ta'izz, Weather by CustomWeather, © 2014

Note: Actual official high and low records may vary slightly from our data, if they occured in-between our weather recording intervals... More about our weather records

Advertising

Ta'izz weather history for previous 24 hours

 ConditionsComfort  
Time TempWeatherWind HumidityBarometerVisibility
10:00 AM
Oct 2
75 °FPassing clouds.3 mph61%30.15 "HgN/A
8:00 AM70 °FPassing clouds.6 mph78%30.12 "HgN/A
7:00 AM64 °FPassing clouds.2 mph78%30.09 "HgN/A
6:00 AM61 °FPassing clouds.7 mph83%30.09 "HgN/A
5:00 AM61 °FClear.7 mph88%30.07 "Hg10 mi
12:00 AM68 °FPartly cloudy.3 mph88%30.09 "HgN/A
11:00 PM
Oct 1
68 °FPassing clouds.3 mph88%30.09 "HgN/A
10:00 PM68 °FThunderstorms. Passing clouds.3 mph88%30.09 "HgN/A
9:00 PM70 °FPassing clouds.No wind94%30.07 "HgN/A
8:00 PM68 °FPartly cloudy.No wind100%30.09 "HgN/A
7:00 PM68 °FPassing clouds.3 mph100%30.09 "HgN/A
6:00 PM68 °FPassing clouds.5 mph100%30.04 "HgN/A
5:00 PM68 °FThunderstorms. Scattered clouds.2 mph94%30.04 "HgN/A
4:00 PM66 °FThunderstorms. Broken clouds.6 mph94%30.01 "HgN/A
3:00 PM61 °FThunderstorms. Partly sunny.12 mph94%29.98 "Hg3 mi
2:00 PM79 °FThunderstorms. Scattered clouds.13 mph54%29.98 "HgN/A
1:00 PM81 °FPartly sunny.N/A51%30.01 "HgN/A
12:00 PM82 °FScattered clouds.10 mph42%30.07 "HgN/A
11:00 AM82 °FPassing clouds.9 mph40%30.07 "HgN/A
Weather by CustomWeather, © 2014

See weather overviewHow to use our weather pages